Location: Unspecified
(0.0000°N, 0.0000°E)
Time: 19:04:44
(UTC+00:00)

STRAND 1 - Visible Passes

Search period start: 24 September 2021 00:00
Search period end: 04 October 2021 00:00
Orbit: 768 x 781 km, 98.4° (Epoch: 23 September)

Date Brightness Start Highest point End Pass type
(mag) Time Alt. Az. Time Alt. Az. Time Alt. Az.
24 Sep ? 18:51:41 10° N 18:56:50 86° WNW 19:02:00 10° SSW visible
25 Sep ? 18:18:10 10° NE 18:22:51 36° ESE 18:27:32 10° SSE visible
25 Sep ? 19:59:18 10° NW 20:01:44 13° WNW 20:04:12 10° WSW visible
26 Sep ? 19:23:08 10° NNW 19:27:46 35° WNW 19:32:27 10° SW visible
27 Sep ? 18:48:38 10° NNE 18:53:47 87° ESE 18:58:57 10° SSW visible
28 Sep ? 18:15:14 10° NE 18:19:49 33° ESE 18:24:24 10° SSE visible
28 Sep ? 19:55:55 10° NW 19:58:42 15° WNW 20:01:30 10° WSW visible
29 Sep ? 19:20:00 10° N 19:24:44 38° WNW 19:29:30 10° SW visible
30 Sep ? 18:45:37 10° NNE 18:50:45 81° ESE 18:55:55 10° S visible
01 Oct ? 18:12:18 10° NE 18:16:46 30° ESE 18:21:14 10° SSE visible
01 Oct ? 19:52:35 10° NW 19:55:40 16° WNW 19:58:45 10° WSW visible
02 Oct ? 19:16:53 10° N 19:21:42 41° WNW 19:26:32 10° SSW visible
03 Oct ? 18:42:35 10° NNE 18:47:43 74° ESE 18:52:51 10° S visible
